Regional Weather Roundup
Issued by NWS Wakefield, VA

Home | Current Version | Previous Version | Graphics & Text | Print | Product List | Glossary On
Versions: 1 2 3 4 5 6 7 8 9 10 11 12 13 14 15 16 17 18 19 20 21 22 23 24 25 26 27 28 29 30 31 32 33 34 35 36 37 38 39 40 41 42 43 44 45 46 47 48
000
ASUS41 KAKQ 300010
RWRAKQ

REGIONAL WEATHER ROUNDUP
NATIONAL WEATHER SERVICE WAKEFIELD VA
800 PM EDT MON SEP 29 2014

Note: "fair" indicates few or no clouds below 12,000 feet with no
significant weather and/or obstructions to visibility. * = Denotes
station may not report precipitation (e.g., rain,snow,etc.),
thunder or fog.

VAZ042-051-052>054-056-300100-
NORTHERN VIRGINIA

CITY           SKY/WX    TMP DP  RH WIND       PRES   REMARKS
WASH NATIONAL  CLOUDY    70  63  78 SW5       29.95R
DULLES         CLOUDY    66  63  90 SE3       29.95R
FORT BELVOIR   NOT AVBL
QUANTICO       CLOUDY    68  64  87 CALM      29.95F
FREDERICKSBRG* CLOUDY    67  67  99 S3        29.94S
STAFFORD*      CLOUDY    64  64 100 CALM      29.99S FOG
WARRENTON      CLOUDY    65  65 100 SE5       29.94S
CULPEPER*      CLOUDY    66  63  88 CALM      29.95S
MANASSAS*      CLOUDY    66  64  94 CALM      29.94
LEESBURG*      CLOUDY    68  66  94 SW3       29.95S
WINCHESTER     CLOUDY    68  61  77 SE3       29.94S
FRONT ROYAL*   CLOUDY    66  63  88 CALM      29.93S
LURAY*         MOCLDY    68  61  77 CALM      29.95R
$$

VAZ048-049-060>072-079>083-300100-
CENTRAL AND SOUTH CENTRAL VIRGINIA...AND NORTH CENTRAL NORTH CAROLINA

CITY           SKY/WX    TMP DP  RH WIND       PRES   REMARKS
RICHMOND       LGT RAIN  67  65  93 SE3       29.96S
CHESTERFIELD*  CLOUDY   N/A N/A N/A CALM      29.97S
PETERSBURG*    LGT RAIN  65  64  96 CALM      29.97S
HANOVER        CLOUDY    67  65  93 CALM      29.97F
TAPPAHANNOCK*  CLOUDY    67  63  87 CALM      29.97S
CHARLOTTSVILLE MOCLDY    65  63  93 S5        29.95S
ORANGE*        CLOUDY    64  63  94 CALM      29.96S
LOUISA*        CLOUDY    66  64  94 CALM      29.95R
FARMVILLE*     CLOUDY    66  64  94 CALM      29.94S
CREWE*         CLOUDY    64  63  95 CALM      29.96S
FORT PICKETT*  CLOUDY    64  64  97 CALM      29.97R
LUNENBURG*     CLOUDY    65  65  99 CALM      29.97R
SOUTH HILL*    DRIZZLE   66  66 100 S3        30.02S
LAWRENCEVILLE* CLOUDY    64  63  98 CALM      29.96S
ROANOKE RAPIDS RAIN      63  63 100 CALM      29.96F
RALEIGH        CLOUDY    66  63  90 CALM      29.99R
$$

VAZ088>098-300100-
SOUTHEAST VIRGINIA

CITY           SKY/WX    TMP DP  RH WIND       PRES   REMARKS
NORFOLK        CLOUDY    70  62  76 CALM      29.95S
VIRGINIA BEACH CLOUDY    71  64  78 CALM      29.95S
NORFOLK NAVAL  CLOUDY    70  63  78 CALM      29.97S
WEST POINT*    CLOUDY    68  65  89 CALM      29.97S
NEWPORT NEWS   CLOUDY    70  65  84 CALM      29.96S
LANGLEY AFB    CLOUDY    67  67 100 CALM      29.97S
FORT EUSTIS    CLOUDY    66 N/A N/A VRB1      29.94F
WILLIAMSBURG*  CLOUDY    68  66  94 CALM      29.97S
HR EXEC AP*    CLOUDY    64  61  88 CALM      29.98S
FRANKLIN*      CLOUDY    64  63  94 CALM      29.97S
WAKEFIELD      LGT RAIN  65  62  90 CALM      29.96S
$$

VAZ020-022-025-037-045-300100-
WEST CENTRAL AND SOUTHWEST VIRGINIA

CITY           SKY/WX    TMP DP  RH WIND       PRES   REMARKS
STAUNTON*      MOCLDY    68  56  67 CALM      29.98R
HOT SPRINGS VA CLOUDY    58  47  66 S5        30.07S
LYNCHBURG      PTCLDY    62  62 100 CALM      29.98S FOG
DANVILLE       CLOUDY    66  63  90 SW3       29.97S
SOUTH BOSTON*  NOT AVBL
MARTINSVILLE   MOCLDY    66  66 100 CALM      30.00S
ROANOKE        PTCLDY    68  62  81 E5        29.98S
BLACKSBURG     MOCLDY    64  64 100 CALM      30.02S
DUBLIN*        LGT RAIN  64  60  90 CALM      30.02S
MARION*        MOCLDY    64  60  88 CALM      30.05R
HILLSVILLE*    CLEAR     61  60  96 S3        30.03S
RICHLANDS*     CLOUDY    70  58  66 CALM      30.03S
WISE*          CLOUDY    68  57  68 CALM      30.03F
ABINGDON*      PTCLDY    67  62  84 CALM      30.01S
$$

MDZ021>025-VAZ099-100-300100-
SOUTHERN MARYLAND AND THE DELMARVA PENINSULA

CITY           SKY/WX    TMP DP  RH WIND       PRES   REMARKS
PATUXENT RIVER CLOUDY    66  63  90 SW5       29.95S
BAY BRIDGE APT   N/A     66  64  94 CALM      29.94S
LEONARDTOWN    CLOUDY    64  63  94 S3        29.96S
DOVER          LGT RAIN  67  66  98 S6        29.93S
GEORGETOWN     LGT RAIN  69  64  84 VRB5      29.96R
EASTON         DRIZZLE   68  68 100 S5        29.98S
CAMBRIDGE      CLOUDY    68  64  88 E5        29.94F
SALISBURY      LGT RAIN  69  64  84 CALM      29.95R
OCEAN CITY     CLOUDY    71  65  81 CALM      29.95R
WALLOPS ISLAND CLOUDY    69  65  86 NW6       29.95S
ACCOMACK*      CLOUDY    66  63  88 CALM      29.95S
$$

NCZ012>017-030>032-300100-
EASTERN NORTH CAROLINA

CITY           SKY/WX    TMP DP  RH WIND       PRES   REMARKS
ELIZABETH CITY CLOUDY    70  64  81 CALM      29.96S
AHOSKIE*       RAIN      63  62  96 CALM      29.98R
EDENTON*       CLOUDY    68  65  89 CALM      29.96F
CURRITUCK*     CLOUDY    68  65  88 CALM      29.96F
KILL DEVIL HLS CLOUDY    70  65  85 CALM      29.94S
MANTEO         CLOUDY    69  64  83 NE6       29.95F
CAPE HATTERAS  CLOUDY    69  64  84 N7        29.94S
TARBORO*       DRIZZLE   66  63  91 CALM      29.98S
GOLDSBORO      CLOUDY    65  65  98 CALM      29.95S
WASHINGTON     CLOUDY    67  65  92 CALM      29.96F
GREENVILLE     LGT RAIN  66  64  94 CALM      29.98F
NEW BERN       LGT RAIN  71  66  84 CALM      29.97S
WILMINGTON     LGT RAIN  68  66  93 NE5       29.95F
$$

VAZ048-300100-
ELSEWHERE

CITY           SKY/WX    TMP DP  RH WIND       PRES   REMARKS
HARRISBURG PA  CLOUDY    70  61  73 VRB3      29.91S
BALTIMORE      CLOUDY    66  63  90 CALM      29.94R
ANNAPOLIS        N/A     68  64  87 CALM      29.94R
ANDREWS AFB    CLOUDY    66  64  92 S6        29.95R
WILMINGTON DE  CLOUDY    67  65  93 CALM      29.95S
PHILADELPHIA   LGT RAIN  69  64  84 W9        29.95R
WILDWOOD NJ*   CLOUDY    68  63  83 CALM      29.96R
ATLANTIC CITY  CLOUDY    69  63  81 S6        29.95R
HENDERSON NC   DRIZZLE   64  63  94 SW3       29.98R
GREENSBORO     CLOUDY    65  63  93 CALM      29.98S
ROCKY MOUNT    LGT RAIN  66  64  93 CALM      29.97S
FAYETTEVILLE   CLOUDY    66  64  93 NW5       29.97R
CHARLOTTE      CLOUDY    67  62  84 SW3       29.98F
$$

VAZ100-300100-
MARINE

STATION/POSITION TIME  TEMP    WIND        PRES    WAVE   SWELL
                       AIR SEA DIR/SP/G            HT/PER HT/PER
                 (UTC) (F)     (DEG/KT/KT) (MB)    (FT/S) (FT/S)
44066 TX TWR #4  0000   69 70  220/  8/  8 1013.9R   2/ 8   2/ 8
CAPE MAY NJ      0000   69 73  150/  2/  3 1013.5S
LEWES DE         0000   70 70  270/  3/  4 1013.7R
15NM E FENWICK I 0000   70 71              1014.0R   2/ 7
OCEAN-CITY-INLET 0000   71 72  210/  6/  7 1013.7S
WACHAPREAGUE VA  0000   68 74   CALM  /  2 1014.1S
THOMAS POINT MD  0000   69 72  220/  7/  8 1014.9R
GOOSES REEF MD   0000   69     250/  4/  6 1014.2S
COVE POINT MD    0000   66     210/  4/  5 1013.9F
SOLOMONS ISLAND  0000      72                N/A
BISHOPS HEAD MD  0000   70 72  220/  5/  5 1013.7R
PINEY POINT MD   0000          250/  4/  5   N/A
POTOMAC MD       0000   69     240/  8/ 10 1013.7R
CAMBRIDGE MD     0000   68 71   CALM  /  2 1013.8R
LEWISETTA VA     0000   67 71  220/  6/  7 1014.0S
RAPPAHANNOCK LGT 0000          290/  5/  5 1014.8R
STINGRAY PT      0000   69     280/  6/ 10   N/A
YORK RVR RNG VA  0000   69     320/  7/  8 1013.9F
YORKTOWN VA      0000   67 73  250/  3/  3 1014.1F
JAMESTOWN VA     0000   67     230/  4/  6   N/A
DOMINION TERM VA 0000   69     320/  5/  7 1014.4S
KIPTOPEKE VA     0000      76   60/  2/  2   N/A
CHES BAY BRIDGE  0000   71 72  300/  4/  4 1014.0S
CHESAPEAKE LGHT  2300   71     330/  4/  5 1014.9F
WILLOUBY STN VA  0000   69     350/  2/  2 1013.1S
S CRANEY ISL VA  0000          260/  2/  3 1014.1S
CAPE HENRY BUOY  0000      73                N/A     2/ 7
1ST LANDING BUOY 0000   71     330/  4/  6 1014.1F
CAPE CHARLES BUO 0000      72                N/A     2/ 7   2/ 7
OFFSHORE WE BUOY 0000      73                N/A     2/ 8   2/ 8
64NM E OF VA BCH 0000   71 73  360/  4/  6 1013.7R   2/ 8   2/ 8
DUCK PIER NC     0000   71 73   10/  9/ 10 1013.3R
44100 DUCK FRF   0000      72                N/A     2/ 8
44056 DUCK FRF   0000                        N/A     2/ 7
OREGON INLET NC  0000   70 74  360/  7/ 10 1013.9S
HATTERAS NC      0000   73 76   10/ 12/ 14 1014.4S
DIAMOND SHLS NC  0000   73     340/ 16/ 17 1013.3R   3/ 8   2/ 8
CAPE LOOKOUT NC  2300   73     350/  9/ 11 1013.8R
$$



USA.gov is the U.S. government's official web portal to all federal, state and local government web resources and services.